sat.trackr.live / text

‹ back to catalog

STARLINK-31726

NORAD 59739 · 2024-090K

PAYLOAD ACTIVE UNKNOWN

§ Identity

Operator
Country
US
Launch date
2024-05-13
Launch site
AFETR
Launch vehicle
Mass (kg)
RCS (m²)

Purposes: comms

External: N2YO · Heavens-Above · Gunter

§ Orbital elements

Epoch: 2026-09-21T03:06:13.749984Z

Period
94.27 min
Inclination
43.0011°
Eccentricity
0.0001023
Mean motion
15.27578618 rev/d
Perigee alt
482.4 km
Apogee alt
483.8 km
Semi-major
6,861.2 km
B*
3.0883e-5
RAAN
159.4480°
Arg perigee
263.4959°
Mean anomaly
96.5776°
Rev number
13,333

§ Raw data

STARLINK-317261 59739U 24090K   26264.12932581  .00000588  00000+0  30883-4 0  99952 59739  43.0011 159.4480 0001023 263.4959  96.5776 15.27578618133332

JSON: /api/v1/satellites/59739 · /tle

For live sub-satellite position, see the globe view (requires WebGL).

§ Visibility from observer

Set your observer location to see the next 7 days of passes ≥ 10°. The values pass through the URL so the page stays shareable.

No JS? Fill the form by hand. The geolocation button needs JavaScript.